Find Local Weather

World > North America > United States > Texas

Plano, Texas Regional Weather

Lat: 33.05N, Lon: 96.75W
Wx Zone: TXZ104
Feedback

Plano, TX Regional Weather

Expires:201903210400;;681062
ASUS44 KFWD 210315
RWRTX 
NORTH TEXAS HOURLY WEATHER ROUNDUP
NATIONAL WEATHER SERVICE FORT WORTH TX
1000 PM CDT WED MAR 20 2019

NOTE: "FAIR" INDICATES FEW OR NO CLOUDS BELOW 12,000 FEET WITH NO
SIGNIFICANT WEATHER AND/OR OBSTRUCTIONS TO VISIBILITY.


TXZ091>094-102>105-117-120-121-131>134-210400-
NORTH CENTRAL TEXAS
  
CITY           SKY/WX    TMP DP  RH WIND       PRES   REMARKS
SHRMAN/DENISON NOT AVBL                                               
GAINESVILLE    FAIR      51  38  62 CALM      30.25R                  
BOWIE          FAIR      52  40  64 SW3       30.23R                  
BRIDGEPORT     FAIR      50  38  63 SW3       30.26R                  
DECATUR        FAIR      55  38  54 SW7       30.23S                  
DENTON         FAIR      52  39  61 W6        30.23R                  
MCKINNEY       FAIR      53  39  59 W6        30.22R                  
BONHAM         FAIR      50  40  68 SW5       30.22R                  
GREENVILLE     FAIR      50  41  71 CALM      30.23R                  
ROCKWALL       FAIR      56  38  50 CALM      30.23R                  
TERRELL        FAIR      53  36  52 CALM      30.23R                  
WAXAHACHIE     FAIR      53  37  54 NW5       30.25R                  
CLEBURNE       FAIR      55  34  44 N9G17     30.27R                  
GRANBURY       FAIR      51  36  56 W5        30.27R                  
$$


SKY/WX - Weather  TMP - Temperature  DP - Dew Point  RH - Relative Humidity
WIND - Wind Direction/Speed PRES - Barometric Pressure VSB - Visibility
WCI - Wind Chill Index E13G22 Wind - East Wind 13 mph/Gusts of 22 mph